Location: Newark
(44.1667°N, 8.2500°E)
Time: 15:58:08
(UTC+00:00)

Envisat - Pass Details

Date: 12 November 2019
Orbit: 764 x 766 km, 98.1° (Epoch: 12 December)

Event Time Altitude Azimuth Distance (km) Brightness Sun altitude
Rises 18:14:45 0° 193° (SSW) 3,219 6.4 -23.6°
Reaches altitude 10° 18:17:17 10° 203° (SSW) 2,298 5.8 -24.0°
Maximum altitude 18:21:44 31° 265° (W) 1,337 4.9 -24.8°
Drops below altitude 10° 18:26:13 10° 326° (NNW) 2,312 5.9 -25.6°
Sets 18:28:48 0° 337° (NNW) 3,243 6.5 -26.1°
